TimeEDT,TemperatureF,Dew PointF,Humidity,Sea Level PressureIn,VisibilityMPH,Wind Direction,Wind SpeedMPH,Gust SpeedMPH,PrecipitationIn,Events,Conditions,WindDirDegrees,DateUTC
12:15 AM,48.2,44.6,87,30.05,10.0,NW,5.8,-,N/A,,Clear,320,2012-09-17 04:15:00
12:35 AM,48.2,44.6,87,30.05,10.0,Calm,Calm,-,N/A,,Clear,0,2012-09-17 04:35:00
12:55 AM,46.4,44.6,93,30.05,10.0,NNW,3.5,-,N/A,,Clear,330,2012-09-17 04:55:00
1:15 AM,46.4,44.6,93,30.06,10.0,Calm,Calm,-,N/A,,Clear,0,2012-09-17 05:15:00
1:35 AM,48.2,44.6,87,30.06,10.0,Calm,Calm,-,N/A,,Clear,0,2012-09-17 05:35:00
1:55 AM,48.2,44.6,87,30.06,10.0,Calm,Calm,-,N/A,,Clear,0,2012-09-17 05:55:00
2:15 AM,44.6,41.0,87,30.06,10.0,NNW,4.6,-,N/A,,Scattered Clouds,330,2012-09-17 06:15:00
2:35 AM,46.4,44.6,93,30.06,10.0,Calm,Calm,-,N/A,,Scattered Clouds,0,2012-09-17 06:35:00
2:55 AM,46.4,44.6,93,30.06,10.0,Calm,Calm,-,N/A,,Clear,0,2012-09-17 06:55:00
3:15 AM,44.6,42.8,93,30.06,10.0,Calm,Calm,-,N/A,,Clear,0,2012-09-17 07:15:00
3:35 AM,44.6,42.8,93,30.06,10.0,Calm,Calm,-,N/A,,Clear,0,2012-09-17 07:35:00
3:55 AM,44.6,42.8,93,30.06,10.0,Calm,Calm,-,N/A,,Clear,0,2012-09-17 07:55:00
4:15 AM,44.6,44.6,100,30.06,10.0,Calm,Calm,-,N/A,,Clear,0,2012-09-17 08:15:00
4:35 AM,42.8,41.0,93,30.06,5.0,Calm,Calm,-,N/A,,Clear,0,2012-09-17 08:35:00
4:55 AM,42.8,41.0,93,30.06,10.0,Calm,Calm,-,N/A,,Clear,0,2012-09-17 08:55:00
5:15 AM,44.6,42.8,93,30.07,10.0,Calm,Calm,-,N/A,,Clear,0,2012-09-17 09:15:00
5:35 AM,42.8,41.0,93,30.07,10.0,Calm,Calm,-,N/A,,Clear,0,2012-09-17 09:35:00
5:55 AM,41.0,41.0,100,30.07,10.0,Calm,Calm,-,N/A,,Clear,0,2012-09-17 09:55:00
6:15 AM,41.0,41.0,100,30.08,5.0,Calm,Calm,-,N/A,,Clear,0,2012-09-17 10:15:00
6:35 AM,44.6,41.0,87,30.09,10.0,Calm,Calm,-,N/A,,Clear,0,2012-09-17 10:35:00
6:55 AM,42.8,41.0,93,30.09,10.0,Calm,Calm,-,N/A,,Clear,0,2012-09-17 10:55:00
7:15 AM,44.6,42.8,93,30.09,1.5,NW,3.5,-,N/A,,Clear,320,2012-09-17 11:15:00
7:35 AM,48.2,46.4,93,30.10,10.0,NW,3.5,-,N/A,,Clear,310,2012-09-17 11:35:00
7:55 AM,53.6,48.2,82,30.09,9.0,WNW,4.6,-,N/A,,Clear,300,2012-09-17 11:55:00
8:15 AM,57.2,50.0,77,30.10,9.0,NW,3.5,-,N/A,,Clear,320,2012-09-17 12:15:00
8:35 AM,60.8,50.0,68,30.10,10.0,Calm,Calm,-,N/A,,Clear,0,2012-09-17 12:35:00
8:55 AM,62.6,50.0,63,30.10,10.0,Calm,Calm,-,N/A,,Clear,0,2012-09-17 12:55:00
9:15 AM,62.6,48.2,59,30.11,10.0,NW,4.6,-,N/A,,Clear,310,2012-09-17 13:15:00
9:35 AM,62.6,50.0,63,30.11,10.0,West,4.6,-,N/A,,Clear,280,2012-09-17 13:35:00
9:55 AM,64.4,48.2,56,30.11,10.0,WNW,3.5,-,N/A,,Clear,290,2012-09-17 13:55:00
10:15 AM,66.2,48.2,52,30.11,10.0,West,4.6,-,N/A,,Clear,260,2012-09-17 14:15:00
10:35 AM,66.2,48.2,52,30.11,10.0,WSW,4.6,-,N/A,,Clear,250,2012-09-17 14:35:00
10:55 AM,68.0,48.2,49,30.11,10.0,SW,8.1,-,N/A,,Clear,230,2012-09-17 14:55:00
11:35 AM,68.0,46.4,46,30.10,10.0,SW,8.1,-,N/A,,Clear,230,2012-09-17 15:35:00
11:55 AM,68.0,46.4,46,30.10,10.0,WSW,9.2,-,N/A,,Clear,240,2012-09-17 15:55:00
12:15 PM,69.8,48.2,46,30.09,10.0,West,13.8,17.3,N/A,,Clear,260,2012-09-17 16:15:00
12:35 PM,68.0,46.4,46,30.09,10.0,WSW,9.2,-,N/A,,Clear,240,2012-09-17 16:35:00
12:55 PM,69.8,48.2,46,30.09,10.0,SW,10.4,-,N/A,,Clear,220,2012-09-17 16:55:00
1:15 PM,69.8,48.2,46,30.09,10.0,WSW,12.7,16.1,N/A,,Clear,240,2012-09-17 17:15:00
1:35 PM,68.0,46.4,46,30.08,10.0,SW,9.2,16.1,N/A,,Clear,230,2012-09-17 17:35:00
1:55 PM,69.8,48.2,46,30.08,10.0,South,9.2,-,N/A,,Clear,190,2012-09-17 17:55:00
2:15 PM,68.0,48.2,49,30.08,10.0,WSW,5.8,-,N/A,,Clear,250,2012-09-17 18:15:00
2:35 PM,68.0,48.2,49,30.07,10.0,West,6.9,-,N/A,,Clear,260,2012-09-17 18:35:00
2:55 PM,68.0,48.2,49,30.06,10.0,SW,6.9,-,N/A,,Clear,220,2012-09-17 18:55:00
3:15 PM,69.8,48.2,46,30.06,10.0,SW,6.9,-,N/A,,Clear,220,2012-09-17 19:15:00
3:35 PM,69.8,48.2,46,30.06,10.0,WSW,6.9,-,N/A,,Clear,240,2012-09-17 19:35:00
3:55 PM,69.8,48.2,46,30.06,10.0,West,6.9,-,N/A,,Clear,260,2012-09-17 19:55:00
4:15 PM,69.8,50.0,49,30.06,10.0,West,8.1,-,N/A,,Clear,260,2012-09-17 20:15:00
4:35 PM,69.8,50.0,49,30.05,10.0,WSW,9.2,-,N/A,,Clear,240,2012-09-17 20:35:00
4:55 PM,68.0,53.6,60,30.06,10.0,SW,10.4,-,N/A,,Clear,230,2012-09-17 20:55:00
5:15 PM,68.0,53.6,60,30.06,10.0,WSW,9.2,-,N/A,,Clear,240,2012-09-17 21:15:00
5:35 PM,66.2,53.6,64,30.06,10.0,WSW,8.1,-,N/A,,Clear,240,2012-09-17 21:35:00
5:55 PM,66.2,53.6,64,30.06,10.0,SW,9.2,-,N/A,,Clear,230,2012-09-17 21:55:00
6:15 PM,64.4,53.6,68,30.06,10.0,SW,5.8,-,N/A,,Clear,230,2012-09-17 22:15:00
6:35 PM,62.6,53.6,72,30.06,10.0,SW,5.8,-,N/A,,Clear,220,2012-09-17 22:35:00
6:55 PM,62.6,53.6,72,30.06,10.0,SW,5.8,-,N/A,,Clear,220,2012-09-17 22:55:00
7:15 PM,59.0,53.6,82,30.07,10.0,SW,6.9,-,N/A,,Clear,220,2012-09-17 23:15:00
7:35 PM,59.0,53.6,82,30.08,10.0,SW,6.9,-,N/A,,Clear,220,2012-09-17 23:35:00
7:55 PM,59.0,53.6,82,30.08,10.0,SW,5.8,-,N/A,,Clear,230,2012-09-17 23:55:00
8:15 PM,59.0,53.6,82,30.09,10.0,SSW,4.6,-,N/A,,Clear,210,2012-09-18 00:15:00
8:35 PM,59.0,53.6,82,30.09,10.0,SW,5.8,-,N/A,,Clear,220,2012-09-18 00:35:00
8:55 PM,57.2,53.6,88,30.10,10.0,SSW,6.9,-,N/A,,Clear,210,2012-09-18 00:55:00
9:15 PM,57.2,53.6,88,30.10,10.0,SSW,5.8,-,N/A,,Clear,210,2012-09-18 01:15:00
9:35 PM,57.2,53.6,88,30.10,10.0,Calm,Calm,-,N/A,,Clear,0,2012-09-18 01:35:00
9:55 PM,57.2,53.6,88,30.09,10.0,Calm,Calm,-,N/A,,Clear,0,2012-09-18 01:55:00
10:15 PM,57.2,53.6,88,30.10,10.0,Calm,Calm,-,N/A,,Clear,0,2012-09-18 02:15:00
10:35 PM,55.4,53.6,94,30.09,10.0,Calm,Calm,-,N/A,,Clear,0,2012-09-18 02:35:00
10:55 PM,55.4,53.6,94,30.10,10.0,Calm,Calm,-,N/A,,Clear,0,2012-09-18 02:55:00
11:15 PM,55.4,53.6,94,30.09,10.0,Calm,Calm,-,N/A,,Clear,0,2012-09-18 03:15:00
11:35 PM,55.4,53.6,94,30.09,10.0,Calm,Calm,-,N/A,,Clear,0,2012-09-18 03:35:00
11:55 PM,55.4,53.6,94,30.09,10.0,Calm,Calm,-,N/A,,Clear,0,2012-09-18 03:55:00